This is the latest recevied weather packets stored in our database for station/object KJ5JYX. If no packets are shown the sender has not sent any weather packets the latest 10 day(s).
| Time | Temp. | Humidity | Pressure | Rain* | Wind** | Luminosity | Snow |
|---|---|---|---|---|---|---|---|
| 1777939825 | 26.67° C | 65% | 1009.2 hPa | 0 mm | - | 31 W/m² | - |
| 1777937400 | 27.22° C | 65% | 1009.2 hPa | 0 mm | - | 38 W/m² | - |
| 1777937097 | 27.22° C | 64% | 1009.2 hPa | 0 mm | - | 42 W/m² | - |
| 1777934673 | 27.78° C | 60% | 1009.5 hPa | 0 mm | - | 41 W/m² | - |
| 1777932854 | 28.89° C | 58% | 1009.9 hPa | 0 mm | - | 57 W/m² | - |
| 1777932551 | 28.89° C | 59% | 1009.8 hPa | 0 mm | - | 352 W/m² | - |
| 1777931034 | 29.44° C | 57% | 1010.1 hPa | 0 mm | - | 409 W/m² | - |
| 1777930731 | 29.44° C | 56% | 1010 hPa | 0 mm | - | 439 W/m² | - |
| 1777930124 | 29.44° C | 57% | 1010.1 hPa | 0 mm | - | 470 W/m² | - |
| 1777929820 | 29.44° C | 56% | 1010.4 hPa | 0 mm | - | 469 W/m² | - |
| 1777929518 | 29.44° C | 58% | 1010.2 hPa | 0 mm | - | 413 W/m² | - |
| 1777929214 | 29.44° C | 57% | 1010.2 hPa | 0 mm | - | 393 W/m² | - |
| 1777928911 | 29.44° C | 57% | 1010.5 hPa | 0 mm | - | 486 W/m² | - |
| 1777928608 | 29.44° C | 57% | 1010.6 hPa | 0 mm | - | 536 W/m² | - |
| 1777928306 | 28.89° C | 58% | 1010.7 hPa | 0 mm | - | 560 W/m² | - |
| 1777927099 | 28.89° C | 57% | 1011.2 hPa | 0 mm | - | 578 W/m² | - |
| 1777926795 | 28.89° C | 57% | 1011.3 hPa | 0 mm | - | 608 W/m² | - |
| 1777925885 | 27.78° C | 59% | 1011.5 hPa | 0 mm | - | 363 W/m² | - |
| 1777925280 | 28.33° C | 64% | 1011.8 hPa | 0 mm | - | 381 W/m² | - |
| 1777924975 | 27.78° C | 61% | 1011.9 hPa | 0 mm | - | 366 W/m² | - |
| 1777924672 | 28.33° C | 60% | 1012 hPa | 0 mm | - | 293 W/m² | - |
| 1777924368 | 27.78° C | 61% | 1012 hPa | 0 mm | - | 617 W/m² | - |
| 1777924065 | 27.78° C | 61% | 1012.3 hPa | 0 mm | - | 670 W/m² | - |
| 1777923155 | 28.33° C | 60% | 1012.5 hPa | 0 mm | - | 614 W/m² | - |
| 1777922853 | 27.78° C | 62% | 1012.3 hPa | 0 mm | - | 585 W/m² | - |
* Rain latest hour (hover to see other rain measurements)
** Current wind speed in m/s (hover to see current wind gust speed)